[[{"header":{"parameterUnit":"m.s-1","parameterCategory":1,"la1":30.2992,"la2":30.254,"lo1":-89.0895,"lo2":-89.0443,"dy":0.0025,"dx":0.0025,"nx":19,"ny":19,"refTime":"2026-04-13T09:00:00:Z","depth":0,"parameterNumber":2,"parameterNumberName":"U-component_of_WINDS"},"data":[0,0,0,-1.656,-1.6559,-1.6523,-1.6522,-1.6478,-1.6478,0,0,0,0,0,0,0,0,0,0,0,-1.6574,-1.6573,-1.656,-1.6559,-1.6523,-1.6522,-1.6478,-1.6478,0,0,0,0,0,0,0,0,0,0,0,-1.6574,-1.6573,-1.6573,-1.6559,-1.6523,-1.6522,-1.6479,-1.6505,0,0,0,0,0,0,0,0,0,0,-1.6539,-1.6556,-1.6574,-1.6573,-1.6559,-1.6523,-1.6522,-1.6506,-1.6503,-1.6496,0,-1.6493,0,-1.6485,-1.6475,-1.6475,0,0,0,-1.6556,-1.6558,-1.6546,-1.6573,-1.6558,-1.6523,-1.6538,-1.6504,-1.6501,-1.6493,-1.6492,-1.649,-1.6484,-1.6475,-1.6475,-1.6451,-1.6451,0,0,-1.6558,-1.6568,-1.6548,-1.6544,-1.6552,-1.6539,-1.6537,-1.6502,-1.6502,-1.6492,-1.6489,-1.6484,-1.6475,-1.6475,-1.6451,-1.6451,0,0,0,-1.6566,-1.657,-1.6558,-1.6546,-1.6539,-1.6538,-1.6536,-1.6503,-1.6499,-1.6489,-1.6483,-1.6475,-1.6474,-1.6451,-1.6451,-1.6463,0,0,0,-1.6567,-1.6574,-1.6559,-1.6565,-1.654,-1.6521,-1.6538,-1.6501,-1.6497,-1.6483,-1.6475,-1.6474,-1.6451,-1.6451,-1.6462,-1.6466,0,0,0,-1.6575,-1.6575,-1.6571,-1.6566,-1.6551,-1.6521,-1.6515,-1.65,-1.6493,-1.6475,-1.6474,-1.6451,-1.6451,-1.6462,-1.6466,-1.6464,0,0,0,-1.6586,-1.6581,-1.6572,-1.6564,-1.6551,-1.653,-1.6515,-1.6498,-1.6484,-1.6474,-1.6451,-1.6451,-1.6462,-1.6465,-1.6463,-1.6464,-1.6465,0,0,-1.6585,-1.6581,-1.6576,-1.6567,-1.655,-1.6534,-1.6519,-1.6495,-1.6483,-1.6462,-1.6461,-1.6463,-1.6466,-1.6463,-1.6468,-1.6469,0,0,0,-1.6579,-1.6576,-1.6569,-1.6557,-1.654,-1.6526,-1.6504,-1.6495,-1.6477,-1.6475,-1.6461,-1.6462,-1.646,-1.646,-1.6461,-1.6459,-1.6451,-1.6451,-1.6451,-1.6593,-1.6579,-1.657,-1.6552,-1.654,-1.6519,-1.6508,-1.6492,-1.648,-1.6477,-1.6471,-1.6475,-1.6475,-1.6476,-1.6474,-1.647,-1.647,-1.647,-1.647,-1.6591,-1.6584,-1.657,-1.6556,-1.6541,-1.6528,-1.6507,-1.65,-1.6485,-1.6479,-1.6476,-1.6471,-1.6478,-1.6475,-1.6471,-1.647,-1.647,-1.647,-1.647,-1.6598,-1.6593,-1.6583,-1.6565,-1.6553,-1.6534,-1.6521,-1.6508,-1.6495,-1.6492,-1.6484,-1.6484,-1.6482,-1.649,-1.649,-1.649,-1.649,-1.649,-1.649,-1.661,-1.6599,-1.6591,-1.6573,-1.6564,-1.655,-1.6529,-1.6519,-1.6504,-1.6495,-1.6495,-1.6484,-1.6481,-1.6481,-1.649,-1.649,-1.649,-1.649,-1.649,-1.6613,-1.6611,-1.6598,-1.6589,-1.6567,-1.6556,-1.6539,-1.652,-1.651,-1.6504,-1.6493,-1.6494,-1.6488,-1.6487,-1.6487,-1.6497,-1.6497,-1.6497,-1.6497,-1.662,-1.6616,-1.66,-1.6587,-1.6572,-1.6556,-1.6541,-1.6524,-1.6506,-1.6499,-1.6495,-1.6494,-1.6493,-1.6488,-1.6487,-1.6486,-1.6496,-1.6496,-1.6496,-1.6621,-1.6615,-1.6606,-1.659,-1.6572,-1.6557,-1.6542,-1.6527,-1.6505,-1.6495,-1.6493,-1.6493,-1.649,-1.649,-1.648,-1.6479,-1.6477,0,0]},{"header":{"parameterUnit":"m.s-1","parameterCategory":1,"la1":30.2992,"la2":30.254,"lo1":-89.0895,"lo2":-89.0443,"dy":0.0025,"dx":0.0025,"nx":19,"ny":19,"refTime":"2026-04-13T09:00:00:Z","depth":0,"parameterNumber":3,"parameterNumberName":"V-component_of_WINDS"},"data":[0,0,0,4.1943,4.1942,4.1896,4.1896,4.1847,4.1847,0,0,0,0,0,0,0,0,0,0,0,4.1964,4.1964,4.1943,4.1942,4.1896,4.1896,4.1847,4.1847,0,0,0,0,0,0,0,0,0,0,0,4.1964,4.1964,4.1964,4.1942,4.1896,4.1896,4.1847,4.1878,0,0,0,0,0,0,0,0,0,0,4.1921,4.1948,4.1964,4.1964,4.1942,4.1896,4.1896,4.1879,4.1876,4.1873,0,4.1873,0,4.1859,4.1844,4.1844,0,0,0,4.1936,4.195,4.1932,4.1964,4.1941,4.1896,4.1915,4.1877,4.1874,4.1869,4.1872,4.187,4.1859,4.1844,4.1844,4.1851,4.1851,0,0,4.1938,4.1959,4.1934,4.193,4.1939,4.1917,4.1914,4.1875,4.1879,4.1872,4.1869,4.1858,4.1844,4.1843,4.185,4.1851,0,0,0,4.195,4.1961,4.1943,4.1932,4.1923,4.1915,4.1912,4.1881,4.1874,4.1868,4.1857,4.1843,4.1843,4.185,4.185,4.1887,0,0,0,4.1951,4.1968,4.1945,4.1957,4.1924,4.1902,4.192,4.1876,4.1871,4.1857,4.1843,4.1843,4.1849,4.185,4.1886,4.1901,0,0,0,4.1964,4.1969,4.1965,4.1958,4.1939,4.1902,4.1892,4.1875,4.1865,4.1844,4.1843,4.1849,4.185,4.1884,4.1898,4.1909,0,0,0,4.1984,4.1997,4.1966,4.1977,4.194,4.1926,4.1892,4.188,4.1867,4.1843,4.185,4.185,4.1883,4.1896,4.1908,4.1923,4.1931,0,0,4.2011,4.2001,4.2005,4.1977,4.1975,4.1931,4.1934,4.19,4.1878,4.1861,4.1861,4.1886,4.1898,4.1909,4.1971,4.1978,0,0,0,4.2021,4.2024,4.2019,4.2009,4.1986,4.1967,4.1932,4.1921,4.1905,4.1874,4.1893,4.1899,4.1905,4.1911,4.1917,4.192,4.1854,4.1854,4.1854,4.2087,4.2062,4.2068,4.2037,4.2028,4.1994,4.1983,4.1961,4.1935,4.194,4.1934,4.1975,4.1983,4.1987,4.1992,4.194,4.1941,4.1941,4.1941,4.2125,4.2126,4.2096,4.2091,4.2064,4.2059,4.2027,4.201,4.2001,4.1977,4.198,4.1956,4.1996,4.1998,4.1943,4.1943,4.1943,4.1942,4.1942,4.2165,4.2162,4.215,4.2134,4.2125,4.2093,4.2087,4.2062,4.2037,4.2041,4.2033,4.2032,4.2028,4.2039,4.204,4.204,4.204,4.204,4.204,4.2212,4.2197,4.2196,4.2176,4.2167,4.2153,4.2121,4.2111,4.2094,4.2076,4.2075,4.205,4.2005,4.1994,4.2042,4.2042,4.2041,4.2041,4.2041,4.2258,4.2245,4.2243,4.2235,4.2211,4.2204,4.2173,4.2157,4.2145,4.2143,4.2118,4.2089,4.2076,4.2071,4.2061,4.2124,4.2124,4.2124,4.2124,4.2292,4.2284,4.2278,4.2268,4.2254,4.2227,4.2227,4.2203,4.2176,4.2167,4.2155,4.2141,4.2137,4.2126,4.212,4.211,4.2184,4.2184,4.2184,4.232,4.231,4.2314,4.229,4.227,4.2253,4.2252,4.224,4.2206,4.2186,4.216,4.2158,4.2135,4.2129,4.2105,4.2097,4.208,0,0]}]]